Theta_e
318 317 315 315 313 313 312 312 311 311 312 313 313 312 312 313 313 314 314 315 315 315 316 317 316 312 306 300 299 308 311 310 309 306 302 299 298 297 293 294 296 294 293 295 296 295 297
317 318 316 315 314 313 312 311 311 311 311 311 312 312 312 312 313 313 314 314 315 314 316 317 314 311 303 294 307 308 307 307 306 305 303 302 298 298 295 294 293 294 293 294 296 295 297
317 316 317 315 314 313 312 311 311 310 310 311 310 312 312 312 313 313 313 314 314 314 315 315 312 305 302 298 307 308 307 305 306 305 302 303 302 299 296 294 296 294 290 293 295 295 295
316 316 317 316 315 314 313 311 311 310 310 310 310 311 312 311 312 312 312 314 312 312 314 313 307 304 297 306 310 307 308 305 307 307 305 305 303 300 297 297 295 291 292 289 293 294 295
317 318 317 317 316 315 314 313 311 310 310 310 309 311 311 311 312 312 311 313 312 310 310 307 303 301 295 308 303 306 306 303 305 304 304 303 302 297 297 293 291 292 286 287 289 293 292
319 319 318 318 318 317 315 314 313 311 310 310 309 311 311 311 313 311 309 309 308 307 306 302 303 297 299 297 302 304 307 304 301 301 301 300 298 295 294 292 284 285 286 286 286 290 292
320 319 319 319 319 318 317 315 314 312 310 309 309 310 310 311 310 309 303 301 299 299 301 295 295 294 297 302 304 303 305 302 301 298 293 295 292 288 289 290 289 288 287 286 288 291 289
320 319 319 319 319 318 318 317 315 314 310 309 309 310 310 310 309 307 306 299 297 300 291 296 298 297 299 301 296 300 305 297 296 291 293 293 288 291 291 291 289 288 286 286 288 290 290
319 319 318 319 319 318 318 317 316 314 310 308 308 310 310 309 306 304 302 299 304 302 292 289 294 295 296 299 295 297 300 296 293 291 291 289 289 292 290 290 288 287 285 285 285 289 289
319 319 318 318 318 318 317 317 316 314 311 307 308 309 309 306 303 300 298 302 304 302 292 287 289 293 296 297 292 300 299 296 293 289 289 289 292 290 289 287 289 284 288 287 286 285 283
319 319 318 317 317 317 316 316 315 314 310 308 308 308 307 305 300 297 300 303 303 298 287 285 288 297 296 293 292 295 299 297 290 287 289 287 289 289 287 287 289 287 289 287 287 286 284
320 319 318 317 317 316 316 316 315 314 311 308 307 307 304 302 302 301 302 301 298 290 286 284 287 289 289 291 291 295 294 296 292 288 289 287 290 291 289 290 290 290 286 284 285 284 279
320 319 318 317 316 315 315 316 315 314 311 309 307 306 303 302 296 302 299 296 288 288 284 284 284 287 287 286 288 290 288 287 285 285 281 285 286 289 291 288 290 289 284 281 279 279 279
321 319 318 317 316 315 315 316 315 313 310 309 306 303 300 300 301 299 296 293 289 280 282 284 285 285 284 285 286 288 286 285 287 284 281 280 282 285 289 287 284 285 284 280 275 276 278
320 319 318 317 316 315 315 315 315 312 310 307 304 301 300 300 300 297 294 287 288 285 284 284 282 282 282 284 285 286 286 286 285 285 283 281 281 286 288 289 289 285 282 286 279 276 275
320 319 318 317 316 315 315 315 314 311 310 306 300 298 298 300 298 295 290 287 285 283 286 285 286 281 284 282 283 284 284 288 286 288 286 282 280 282 285 288 289 288 289 280 282 274 274
320 319 318 317 316 315 315 315 313 311 309 304 299 293 297 299 296 294 287 287 282 285 288 284 282 281 282 282 283 283 283 287 288 287 288 287 281 283 284 284 283 285 284 283 283 280 275
319 319 317 316 315 315 315 314 313 311 308 303 296 287 298 296 288 281 285 282 286 286 288 285 284 284 284 283 282 283 283 285 289 289 283 286 282 280 280 285 285 286 284 284 280 276 279
318 318 317 316 315 315 314 314 313 311 307 298 288 291 298 296 286 285 282 284 286 286 287 285 284 286 286 283 281 283 285 288 289 288 285 286 281 279 279 283 285 283 285 286 284 282 277
315 317 317 316 316 315 314 314 312 310 307 299 291 285 290 292 288 286 284 284 283 288 287 288 286 287 285 282 284 281 283 287 288 289 290 288 278 279 279 281 282 279 281 285 284 279 278
313 313 317 316 316 315 314 314 312 310 306 299 290 286 287 285 286 285 286 285 283 283 287 288 285 285 284 279 279 281 284 285 288 291 288 286 278 274 277 279 279 280 280 281 281 283 278
311 311 312 316 316 315 314 313 312 309 307 296 287 286 288 286 286 285 286 285 285 285 286 284 284 286 285 282 283 281 284 284 284 287 285 285 278 275 273 275 278 277 280 280 279 282 283
309 310 311 312 315 314 314 313 311 308 308 295 293 293 294 287 285 285 284 284 285 287 287 288 287 285 284 285 286 285 287 286 287 286 283 282 279 276 276 271 271 276 277 280 283 284 284
307 309 309 310 312 314 313 313 311 308 309 301 297 295 292 285 286 286 286 285 285 285 284 286 287 285 286 287 287 286 284 284 285 283 284 280 278 276 275 273 276 283 284 284 283 285 286
306 307 309 310 311 312 313 313 310 309 309 300 298 298 296 286 289 286 286 285 285 287 284 285 286 287 288 286 282 279 277 277 274 279 282 283 280 274 273 272 279 280 281 283 282 286 287
305 305 307 308 310 311 312 312 310 309 310 302 299 303 299 289 286 291 286 287 284 284 283 284 286 287 286 282 280 277 278 275 273 275 282 281 281 278 272 273 275 282 285 288 288 283 290
303 304 306 306 308 309 309 310 310 309 310 307 300 304 300 290 291 291 287 286 289 287 283 284 283 284 285 281 279 277 279 271 276 272 274 276 277 274 273 274 277 283 288 288 282 286 289
301 301 301 304 306 307 307 307 308 309 309 309 300 303 303 293 291 291 292 288 288 289 284 284 284 283 282 280 280 279 276 273 274 275 275 275 274 273 272 271 274 282 286 285 290 290 291
299 300 299 301 303 304 306 307 307 306 309 309 298 302 302 297 290 292 292 291 293 295 287 287 287 283 285 284 280 277 275 271 275 278 276 276 280 277 278 279 283 286 290 292 290 291 291
Wind_Speed
10 9 8 7 5 5 6 6 7 7 8 9 10 11 12 12 12 13 12 10 9 8 10 13 14 8 1 8 7 10 18 15 8 7 12 4 12 4 6 4 4 6 5 3 8 4 5
11 11 9 7 6 5 5 4 5 6 7 8 9 11 12 13 13 15 12 10 8 7 9 12 14 4 4 11 8 10 12 8 9 8 9 10 5 5 7 4 4 1 1 7 8 5 6
12 11 10 9 7 5 4 4 4 5 7 8 10 11 12 13 14 15 13 9 6 6 7 9 7 3 19 8 6 10 8 2 5 5 5 6 3 2 1 3 2 1 2 2 17 13 5
13 12 11 10 8 7 5 3 1 4 7 8 9 10 11 13 14 16 11 7 5 5 5 6 5 2 7 1 6 10 12 3 5 4 3 3 3 5 4 1 1 1 1 2 12 17 5
14 12 11 11 9 8 6 4 1 3 5 7 8 9 10 12 13 15 10 7 8 3 5 4 3 3 5 7 10 9 7 7 6 2 5 3 3 6 3 1 3 5 4 7 2 17 5
15 13 12 10 10 10 8 5 2 2 4 6 8 9 11 12 12 11 7 2 6 1 5 0 4 2 6 8 8 8 6 5 5 3 1 8 6 7 13 6 4 5 3 3 6 10 10
17 16 15 13 11 9 9 7 4 3 2 5 7 9 12 13 11 10 3 1 2 3 13 8 1 4 3 11 4 15 7 6 3 7 5 7 11 11 11 6 2 2 1 4 2 5 5
16 16 15 13 12 10 10 9 6 5 0 4 7 9 11 12 7 8 5 5 4 2 10 6 2 2 1 3 5 19 12 5 8 8 2 5 11 8 3 5 2 3 2 5 1 6 2
18 17 14 14 13 11 11 10 8 5 2 3 6 8 11 11 2 6 9 4 5 3 4 4 3 3 4 6 6 13 10 4 7 8 13 9 4 5 1 8 2 4 7 6 4 5 1
18 17 16 16 15 13 11 11 9 7 4 2 4 8 11 5 2 1 4 4 3 3 3 8 5 5 2 2 4 3 6 2 5 5 4 6 4 4 4 5 7 3 6 5 4 4 2
20 19 17 17 15 14 13 12 11 9 6 3 4 7 8 10 5 3 1 4 1 3 3 3 3 4 4 6 4 10 3 3 5 4 3 2 6 6 5 5 5 4 8 3 1 2 3
21 20 20 18 16 15 13 13 12 11 8 5 4 5 2 3 3 2 4 1 2 4 1 2 3 6 2 6 2 5 5 6 0 2 4 3 1 3 6 3 2 10 3 1 1 1 3
22 20 20 19 19 18 16 14 14 13 10 7 7 12 5 1 3 4 3 1 5 5 1 1 2 3 3 6 5 7 5 9 5 3 6 5 2 2 3 3 0 11 3 2 3 2 2
24 23 22 21 20 19 18 17 16 15 12 9 6 6 5 3 3 3 1 2 4 2 4 0 1 2 4 5 3 4 2 4 7 4 3 5 0 6 6 5 4 6 6 3 5 4 4
25 24 24 23 22 21 19 18 18 17 15 13 7 2 2 4 4 1 1 4 5 6 4 6 2 2 2 0 2 1 4 2 2 2 3 3 2 3 3 2 4 4 4 2 2 2 4
25 25 25 24 23 23 22 21 19 19 17 15 3 2 1 5 3 1 5 3 2 1 3 1 2 1 2 1 2 0 1 1 2 1 0 3 4 1 3 1 1 4 1 1 1 5 4
27 27 26 25 25 24 23 23 22 22 19 12 3 2 1 4 2 3 3 3 3 2 1 1 3 3 1 1 0 1 2 2 2 3 1 2 1 1 3 4 4 3 1 1 1 2 3
27 29 28 26 26 25 24 25 25 24 19 6 4 1 2 3 3 1 3 5 3 4 2 1 2 2 3 5 2 2 2 1 3 5 2 3 0 4 2 1 3 4 4 3 3 1 1
17 25 29 27 26 27 28 27 28 28 20 6 5 2 0 3 4 2 1 3 2 4 4 4 3 1 1 3 1 2 2 2 4 3 3 5 2 3 3 2 1 5 4 3 1 1 6
6 12 20 23 24 26 27 29 31 31 19 5 4 3 2 2 1 5 6 3 4 1 3 3 3 3 3 1 1 3 3 3 3 3 5 5 1 3 4 0 2 5 5 7 6 4 3
7 7 18 20 22 24 26 30 33 32 20 6 2 3 2 5 4 3 3 6 6 5 2 4 2 7 6 4 1 4 3 4 2 8 3 3 3 3 7 9 6 10 10 8 13 11 7
7 8 8 20 21 23 27 30 33 32 22 4 7 6 0 2 4 6 5 6 8 5 8 4 6 6 9 5 5 8 8 6 4 6 4 3 2 2 5 1 3 8 12 13 13 16 17
9 9 8 9 21 23 27 31 34 34 19 4 2 2 3 4 5 5 6 7 8 8 3 1 6 4 7 7 2 3 3 3 5 6 7 4 3 1 4 2 6 6 8 15 9 8 13
10 10 11 11 10 21 24 29 34 37 27 4 4 5 4 4 4 5 6 3 8 8 6 2 3 3 2 10 10 7 8 8 6 6 1 5 3 0 4 6 3 1 2 6 14 9 16
14 10 10 11 10 11 24 29 34 37 26 4 4 5 5 5 6 5 7 6 6 3 3 4 0 1 10 3 3 1 2 3 4 3 1 1 3 2 2 2 9 2 5 7 8 8 20
17 15 11 9 12 10 9 26 35 36 32 5 3 3 3 8 11 10 8 8 7 5 3 1 2 3 1 2 2 4 5 3 2 2 1 4 2 1 3 2 5 1 4 4 2 6 5
12 12 13 9 10 11 10 8 34 36 35 11 3 6 5 3 3 9 7 11 7 5 5 5 4 2 2 2 3 4 4 1 5 9 8 5 3 6 5 5 11 7 7 6 1 2 3
12 7 4 7 7 12 11 11 9 21 33 18 3 10 7 4 4 6 8 9 5 5 7 8 6 2 2 5 4 4 5 6 3 4 8 10 10 6 5 4 10 10 7 8 1 2 2
14 12 5 9 9 5 10 10 11 9 21 24 2 7 3 4 3 3 2 4 1 13 10 11 2 6 8 4 3 3 3 3 2 4 2 6 7 7 12 10 0 16 2 8 2 3 4
Wind_Direction
165 173 152 149 129 111 84 63 48 50 39 35 22 7 6 6 4 3 2 3 2 8 13 11 14 11 68 56 36 329 333 339 340 350 29 37 47 50 70 57 70 50 7 20 353 304 304
195 184 167 162 150 136 99 62 54 51 39 28 19 8 360 2 2 358 354 345 346 359 18 20 13 340 63 66 316 324 335 332 8 12 27 32 54 45 82 61 56 120 208 28 15 16 24
202 198 180 169 164 155 131 93 39 32 46 24 18 5 358 1 355 355 357 342 336 351 9 25 25 66 58 53 326 333 341 335 356 360 40 43 42 43 126 114 23 316 198 29 21 359 33
198 194 191 183 180 171 164 133 42 22 37 23 16 3 355 358 352 350 359 358 347 339 5 16 49 61 76 37 325 358 349 17 20 21 39 33 27 70 38 58 122 10 264 322 28 5 24
197 197 196 187 188 182 183 167 214 357 34 18 10 356 351 355 350 348 353 339 345 345 3 10 58 20 63 330 358 344 0 353 321 30 42 66 54 45 29 89 131 47 41 16 57 21 336
194 197 189 199 195 191 182 183 208 306 18 16 6 349 347 352 345 349 338 312 333 5 8 33 89 105 41 332 321 336 351 347 20 329 70 32 49 61 31 26 48 6 26 38 36 18 43
196 197 195 200 196 195 178 185 189 235 10 1 3 349 348 350 354 4 52 92 186 36 34 51 64 98 322 320 284 4 358 320 25 54 49 29 61 39 18 12 43 5 13 22 51 18 56
201 201 199 196 187 187 181 183 187 216 188 7 354 353 346 346 360 27 72 55 18 51 94 32 32 62 286 331 353 12 360 47 31 55 330 90 51 0 273 10 63 42 360 29 209 13 129
199 199 198 187 183 187 180 181 186 202 167 28 355 348 346 337 9 25 70 68 329 300 79 39 15 15 348 347 33 1 10 21 27 43 44 75 15 327 129 39 15 45 13 337 306 334 74
198 197 195 183 185 182 181 179 180 184 165 72 358 351 1 351 83 352 52 345 342 302 89 357 5 34 342 344 69 339 16 15 54 43 29 65 349 10 38 53 350 292 4 302 282 230 193
202 197 194 187 184 178 182 179 177 172 172 130 15 2 34 40 124 68 18 323 4 250 66 15 350 325 340 68 307 24 21 28 57 36 287 58 4 358 20 2 333 331 327 305 297 192 210
203 198 194 188 181 177 184 181 177 169 166 135 52 22 49 33 55 49 322 313 208 37 115 7 314 356 12 16 59 317 27 52 94 72 42 41 1 327 333 315 308 326 246 191 140 240 230
199 195 195 190 184 179 181 183 174 166 156 140 95 57 57 58 61 344 321 212 28 108 22 9 45 18 60 7 15 17 38 39 26 32 16 346 28 339 333 334 236 3 317 238 205 224 8
199 196 195 192 188 184 179 180 172 162 152 142 111 88 43 50 1 341 274 35 76 26 239 30 62 102 83 344 25 22 68 54 51 46 80 5 161 3 355 55 325 2 358 24 309 326 335
198 196 195 192 190 186 179 176 168 157 148 139 126 51 65 18 2 297 91 55 203 192 154 158 133 89 81 152 302 102 52 85 43 12 53 347 270 333 347 6 328 1 35 355 274 131 259
199 196 195 193 189 186 178 171 164 156 150 148 108 84 33 336 345 245 78 222 165 196 116 143 151 250 164 109 225 356 85 85 137 58 188 132 297 66 330 280 98 339 357 262 42 336 317
198 196 194 192 189 186 177 169 161 156 153 147 95 121 19 339 280 56 143 187 169 184 107 134 169 142 143 152 130 127 123 163 189 112 188 103 216 95 255 36 349 340 332 2 335 315 326
199 196 192 192 188 183 174 166 160 155 152 126 127 130 5 294 69 0 142 167 157 155 155 144 136 141 159 166 154 181 151 160 163 154 112 119 259 289 88 261 324 290 294 295 288 177 273
204 201 188 188 186 181 176 171 164 159 156 130 115 101 353 285 144 156 132 127 181 145 183 173 174 56 92 169 187 200 165 119 155 165 167 162 165 300 159 169 109 266 228 252 71 217 221
273 196 186 184 185 182 181 174 168 164 158 97 117 118 355 27 7 142 153 166 152 217 142 167 126 118 127 127 352 185 183 192 177 152 122 126 140 248 267 287 93 232 233 229 219 245 191
251 310 197 188 186 184 180 174 169 167 155 102 88 194 196 181 227 175 120 139 143 179 232 207 162 211 173 156 155 223 170 188 152 148 122 217 218 198 267 267 256 255 249 222 228 235 231
252 245 288 195 190 185 179 176 171 166 152 89 138 146 161 112 112 125 164 206 167 151 159 215 229 182 191 182 199 194 178 207 187 173 181 193 172 161 274 285 215 268 246 234 242 246 257
229 230 241 285 190 182 179 176 170 161 153 124 144 88 127 150 138 138 205 177 190 151 179 71 202 127 207 227 177 54 82 75 155 167 176 180 156 54 268 329 304 274 229 199 217 219 214
242 237 222 233 260 182 182 178 170 170 179 128 175 128 113 162 176 200 168 135 169 171 137 148 166 160 108 113 106 82 64 64 75 55 56 151 110 103 290 304 288 49 183 182 223 247 217
222 225 232 224 217 242 182 179 176 179 176 115 162 138 152 154 167 147 150 123 91 105 100 142 179 60 151 104 91 75 342 25 358 26 227 296 153 126 295 269 301 197 191 189 185 281 211
217 211 217 228 211 221 214 188 179 183 184 140 161 135 105 127 213 124 154 173 148 154 127 122 41 120 68 84 128 208 229 178 170 56 91 107 74 174 148 241 247 176 151 186 164 275 198
197 211 199 208 215 191 208 227 184 189 191 174 162 178 114 141 169 139 166 178 145 140 121 129 150 178 22 153 168 196 229 335 190 174 174 170 185 208 176 259 280 227 146 143 165 291 161
186 163 218 200 200 207 188 196 216 202 196 184 147 192 155 142 180 195 168 140 126 164 150 146 116 187 141 205 189 199 210 206 178 149 181 176 164 185 138 216 274 154 109 199 245 158 170
208 202 197 236 193 209 209 194 193 196 216 204 127 178 106 113 159 141 285 306 246 173 127 189 106 150 162 171 215 105 180 164 169 229 190 232 202 190 204 207 37 201 206 218 293 243 195